Location: Riverton
(43.0250°N, 108.3790°W)
Time: 02:17:24
(UTC-06:00)

Amateur Radio Satellites - All Passes

Search period start: 28 July 2014 01:47
Search period end: 29 July 2014 01:47
Location: Riverton, 43.0250°N, 108.3790°W

Satellite Date Start Highest point End Downlink Frequencies (MHz)
Time Altitude Azimuth
Oscar 16 28 Jul 01:51:50 01:55:44 21° 93° (E) 01:59:38 437.025 USB, Beacon 2401.1428
ITAMSAT 1 28 Jul 02:11:23 02:13:59 14° 89° (E) 02:16:35 435.822 SSB
Oscar 10/S400 28 Jul 02:20:24 03:03:02 60° 192° (SSW) 11:34:06 145.825 - 145.975 CW/USB, Beacon 145.810 USB
ISS 28 Jul 02:28:21 02:31:13 25° 344° (NNW) 02:34:05 145.800 FM
AO-27 28 Jul 02:29:16 02:33:10 21° 93° (E) 02:37:03 436.795 MHz FM
Uribyol 2 28 Jul 02:30:01 02:34:01 22° 93° (E) 02:38:00 436.500 FM
Sapphire 28 Jul 02:39:05 02:44:09 40° 309° (NW) 02:49:15 437.095 MHz 1200 baud AX-25 AFSK
Gurwin Techsat 1B 28 Jul 02:46:40 02:48:56 13° 88° (E) 02:51:11 435.225 FM
JAS-1B 28 Jul 02:59:27 03:07:51 35° 91° (E) 03:15:10 435.800 - 435.900 CW/SSB
Oscar 19 28 Jul 03:01:59 03:07:11 90° 103° (ESE) 03:12:22 437.125 CW, 437.150 USB
PCSat 28 Jul 03:13:52 03:18:06 23° 316° (NW) 03:22:23 145.825 MHz
AO-Echo 28 Jul 03:27:06 03:32:14 77° 103° (ESE) 03:37:09 ?
Oscar 16 28 Jul 03:30:23 03:35:21 49° 290° (WNW) 03:40:18 437.025 USB, Beacon 2401.1428
OPAL 28 Jul 03:39:13 03:43:47 39° 66° (ENE) 03:48:23 ?
ITAMSAT 1 28 Jul 03:48:52 03:54:03 74° 286° (WNW) 03:59:11 435.822 SSB
AO-7 28 Jul 03:50:02 03:52:42 12° 85° (E) 03:55:22 29.400 - 29.500 MHz
Lituanica SAT-1 28 Jul 03:58:47 03:59:35 13° 23° (NNE) 04:00:24 437.275 MHz beacon
TMSAT-1 28 Jul 04:00:37 04:05:42 45° 99° (E) 04:10:45 436.925 FM
ISS 28 Jul 04:06:16 04:08:44 19° 4° (N) 04:11:13 145.800 FM
AO-27 28 Jul 04:07:57 04:12:57 49° 290° (WNW) 04:17:55 436.795 MHz FM
Uribyol 2 28 Jul 04:08:47 04:13:43 46° 290° (WNW) 04:18:37 436.500 FM
Gurwin Techsat 1B 28 Jul 04:24:12 04:29:33 83° 285° (WNW) 04:34:51 435.225 FM
Oscar 19 28 Jul 04:43:28 04:45:46 13° 302° (WNW) 04:48:05 437.125 CW, 437.150 USB
JAS-1B 28 Jul 04:49:28 04:58:48 60° 293° (WNW) 05:06:52 435.800 - 435.900 CW/SSB
AO-Echo 28 Jul 05:07:33 05:10:18 15° 301° (WNW) 05:13:01 ?
KITSAT 1 28 Jul 05:08:00 05:11:11 13° 98° (E) 05:14:22 435.175 FM
OPAL 28 Jul 05:18:44 05:22:47 25° 263° (W) 05:26:52 ?
Uosat F 28 Jul 05:23:07 05:28:05 60° 101° (ESE) 05:33:01 435.120 FM
Lituanica SAT-1 28 Jul 05:29:12 05:30:09 16° 220° (SW) 05:31:05 437.275 MHz beacon
ITAMSAT 1 28 Jul 05:31:32 05:32:37 11° 305° (NW) 05:33:43 435.822 SSB
AO-7 28 Jul 05:38:43 05:47:02 66° 105° (ESE) 05:55:15 29.400 - 29.500 MHz
TMSAT-1 28 Jul 05:41:06 05:45:21 25° 296° (WNW) 05:49:35 436.925 FM
ISS 28 Jul 05:42:58 05:46:08 37° 24° (NNE) 05:49:18 145.800 FM
JAS-2 28 Jul 06:01:12 06:02:29 11° 83° (E) 06:03:45 435.800 - 435.900 CW/SSB, 435.910 FM
STRAND 1 28 Jul 06:01:26 06:05:25 23° 63° (ENE) 06:09:24 ?
Gurwin Techsat 1B 28 Jul 06:06:36 06:08:40 12° 303° (WNW) 06:10:44 435.225 FM
JAS-1B 28 Jul 06:41:55 06:47:09 17° 316° (NW) 06:52:06 435.800 - 435.900 CW/SSB
MaSat-1 28 Jul 06:47:35 06:52:39 43° 56° (ENE) 06:57:32 437.345 MHz
Hamsat 28 Jul 06:48:15 06:52:16 37° 97° (E) 06:56:17 145.90 MHz
KITSAT 1 28 Jul 06:57:04 07:05:05 69° 117° (ESE) 07:13:07 435.175 FM
Uosat F 28 Jul 07:03:02 07:06:24 18° 299° (WNW) 07:09:46 435.120 FM
ISS 28 Jul 07:19:44 07:22:51 35° 221° (SW) 07:25:56 145.800 FM
Saudisat 1A 28 Jul 07:31:36 07:34:54 21° 112° (ESE) 07:38:13 436.775 MHz
AO-7 28 Jul 07:32:15 07:39:15 32° 304° (NW) 07:46:13 29.400 - 29.500 MHz
STRAND 1 28 Jul 07:39:21 07:44:18 47° 261° (W) 07:49:17 ?
JAS-2 28 Jul 07:42:39 07:48:46 86° 104° (ESE) 07:54:11 435.800 - 435.900 CW/SSB, 435.910 FM
SO-67 28 Jul 07:52:39 07:55:40 27° 96° (E) 07:58:40 435.3500 MHz FM
Hamsat 28 Jul 08:24:47 08:28:00 21° 294° (WNW) 08:31:15 145.90 MHz
MaSat-1 28 Jul 08:25:20 08:29:49 28° 255° (WSW) 08:34:05 437.345 MHz
PCSat 28 Jul 08:34:01 08:36:48 14° 35° (NE) 08:39:33 145.825 MHz
KITSAT 1 28 Jul 08:53:53 09:01:06 34° 319° (NW) 09:08:20 435.175 FM
Saudisat 1A 28 Jul 09:09:56 09:14:11 46° 310° (NW) 09:18:28 436.775 MHz
HO-68 28 Jul 09:14:28 09:19:58 23° 92° (E) 09:25:25 435.675 MHz FM
SO-67 28 Jul 09:26:08 09:28:34 18° 292° (WNW) 09:30:59 435.3500 MHz FM
JAS-2 28 Jul 09:29:30 09:32:52 16° 306° (NW) 09:36:03 435.800 - 435.900 CW/SSB, 435.910 FM
Sapphire 28 Jul 09:42:37 09:47:33 34° 50° (NE) 09:52:28 437.095 MHz 1200 baud AX-25 AFSK
Oscar 11 28 Jul 09:47:26 09:48:47 11° 89° (E) 09:50:09 145.825 FM, Beacon 2401.500 USB
PCSat 28 Jul 10:15:55 10:21:19 64° 57° (ENE) 10:26:42 145.825 MHz
UKube-1 28 Jul 10:35:05 10:39:27 72° 103° (ESE) 10:43:46 145.840 MHz, 145.915 MHz
KITSAT 1 28 Jul 10:55:17 10:59:28 15° 347° (NNW) 11:03:40 435.175 FM
HO-68 28 Jul 11:01:07 11:08:13 69° 291° (WNW) 11:15:16 435.675 MHz FM
Oscar 11 28 Jul 11:21:07 11:25:26 68° 286° (WNW) 11:29:44 145.825 FM, Beacon 2401.500 USB
Sapphire 28 Jul 11:26:01 11:31:01 39° 248° (WSW) 11:35:59 437.095 MHz 1200 baud AX-25 AFSK
FUNcube-1 28 Jul 11:40:31 11:44:41 73° 102° (ESE) 11:48:53 145.950 - 145.970 MHz USB
PCSat 28 Jul 12:00:29 12:04:12 19° 255° (WSW) 12:07:55 145.825 MHz
SO-50 28 Jul 12:05:48 12:08:04 14° 108° (ESE) 12:10:20 436.795 FM
UKube-1 28 Jul 12:13:15 12:15:04 13° 300° (WNW) 12:16:53 145.840 MHz, 145.915 MHz
Oscar 19 28 Jul 12:42:36 12:46:09 19° 62° (ENE) 12:49:42 437.125 CW, 437.150 USB
HO-68 28 Jul 12:51:02 12:54:39 15° 310° (NW) 12:58:16 435.675 MHz FM
KITSAT 1 28 Jul 12:54:16 12:58:58 16° 18° (NNE) 13:03:39 435.175 FM
AO-Echo 28 Jul 13:04:28 13:07:35 16° 60° (ENE) 13:10:41 ?
Oscar 16 28 Jul 13:09:36 13:14:10 34° 67° (ENE) 13:18:46 437.025 USB, Beacon 2401.1428
FUNcube-1 28 Jul 13:19:18 13:20:32 11° 299° (WNW) 13:21:45 145.950 - 145.970 MHz USB
ITAMSAT 1 28 Jul 13:29:42 13:33:53 25° 64° (ENE) 13:38:04 435.822 SSB
JAS-1B 28 Jul 13:43:18 13:51:16 36° 58° (ENE) 13:59:49 435.800 - 435.900 CW/SSB
SO-50 28 Jul 13:43:34 13:48:01 69° 306° (NW) 13:52:35 436.795 FM
RS-15 28 Jul 13:43:42 13:54:24 56° 113° (ESE) 14:04:54 29.354 - 29.394 USB, Beacon 29.352 USB
TMSAT-1 28 Jul 13:46:55 13:48:31 11° 56° (NE) 13:50:07 436.925 FM
AO-27 28 Jul 13:48:04 13:52:48 36° 67° (ENE) 13:57:33 436.795 MHz FM
Uribyol 2 28 Jul 13:48:36 13:53:21 38° 68° (ENE) 13:58:07 436.500 FM
Gurwin Techsat 1B 28 Jul 14:07:54 14:12:03 24° 63° (ENE) 14:16:12 435.225 FM
UOSAT-12 28 Jul 14:09:06 14:12:14 18° 110° (ESE) 14:15:25 437.025 FM, 437.400 FM
Oscar 19 28 Jul 14:20:01 14:25:02 58° 259° (W) 14:30:06 437.125 CW, 437.150 USB
AO-Echo 28 Jul 14:40:22 14:45:40 78° 257° (WSW) 14:51:02 ?
AO-7 28 Jul 14:48:47 14:54:57 24° 51° (NE) 15:01:06 29.400 - 29.500 MHz
Oscar 16 28 Jul 14:49:04 14:53:32 30° 264° (W) 14:58:02 437.025 USB, Beacon 2401.1428
KITSAT 1 28 Jul 14:49:23 14:56:58 41° 45° (NE) 15:04:29 435.175 FM
Uosat F 28 Jul 15:02:05 15:04:13 13° 58° (ENE) 15:06:22 435.120 FM
ITAMSAT 1 28 Jul 15:08:09 15:13:07 45° 261° (W) 15:18:07 435.822 SSB
TMSAT-1 28 Jul 15:22:15 15:27:32 77° 74° (ENE) 15:32:51 436.925 FM
SO-50 28 Jul 15:27:16 15:29:28 13° 327° (NNW) 15:31:42 436.795 FM
AO-27 28 Jul 15:27:49 15:32:21 30° 264° (W) 15:36:54 436.795 MHz FM
Uribyol 2 28 Jul 15:28:28 15:32:54 28° 265° (W) 15:37:20 436.500 FM
JAS-1B 28 Jul 15:32:13 15:41:00 68° 259° (W) 15:50:52 435.800 - 435.900 CW/SSB
Gurwin Techsat 1B 28 Jul 15:46:35 15:51:42 49° 261° (W) 15:56:52 435.225 FM
UOSAT-12 28 Jul 15:47:24 15:51:56 56° 308° (NW) 15:56:35 437.025 FM, 437.400 FM
RS-15 28 Jul 15:56:21 16:06:57 49° 317° (NW) 16:17:29 29.354 - 29.394 USB, Beacon 29.352 USB
Saudisat 1A 28 Jul 15:56:36 16:00:18 25° 44° (NE) 16:03:59 436.775 MHz
Uosat F 28 Jul 16:37:12 16:42:16 90° 256° (WSW) 16:47:21 435.120 FM
AO-7 28 Jul 16:38:20 16:46:43 89° 251° (WSW) 16:55:09 29.400 - 29.500 MHz
KITSAT 1 28 Jul 16:44:49 16:52:36 54° 247° (WSW) 17:00:20 435.175 FM
TMSAT-1 28 Jul 17:05:23 17:08:02 14° 271° (W) 17:10:43 436.925 FM
OPAL 28 Jul 17:26:14 17:31:19 75° 105° (ESE) 17:36:26 ?
JAS-1B 28 Jul 17:28:50 17:33:24 15° 280° (W) 17:38:12 435.800 - 435.900 CW/SSB
UOSAT-12 28 Jul 17:31:15 17:33:08 12° 329° (NNW) 17:35:02 437.025 FM, 437.400 FM
Saudisat 1A 28 Jul 17:35:52 17:40:03 42° 242° (WSW) 17:44:11 436.775 MHz
Hamsat 28 Jul 17:42:50 17:46:28 30° 69° (ENE) 17:50:07 145.90 MHz
JAS-2 28 Jul 17:53:23 18:00:43 47° 68° (ENE) 18:07:36 435.800 - 435.900 CW/SSB, 435.910 FM
RS-15 28 Jul 18:14:25 18:22:50 24° 350° (N) 18:31:18 29.354 - 29.394 USB, Beacon 29.352 USB
Uosat F 28 Jul 18:20:47 18:21:44 11° 272° (W) 18:22:41 435.120 FM
SO-67 28 Jul 18:28:28 18:29:51 12° 65° (ENE) 18:31:14 435.3500 MHz FM
AO-7 28 Jul 18:35:05 18:40:33 19° 270° (W) 18:46:03 29.400 - 29.500 MHz
OPAL 28 Jul 19:06:38 19:09:37 16° 302° (WNW) 19:12:37 ?
Hamsat 28 Jul 19:19:03 19:22:26 24° 266° (W) 19:25:52 145.90 MHz
JAS-2 28 Jul 19:38:34 19:45:45 39° 264° (W) 19:52:35 435.800 - 435.900 CW/SSB, 435.910 FM
HO-68 28 Jul 19:45:07 19:50:13 22° 55° (NE) 19:55:20 435.675 MHz FM
STRAND 1 28 Jul 19:48:51 19:53:52 54° 100° (E) 19:58:50 ?
SO-67 28 Jul 19:59:13 20:02:32 43° 261° (W) 20:05:53 435.3500 MHz FM
RS-15 28 Jul 20:30:41 20:40:00 30° 25° (NNE) 20:49:27 29.354 - 29.394 USB, Beacon 29.352 USB
SO-50 28 Jul 20:34:21 20:38:04 22° 41° (NE) 20:41:49 436.795 FM
MaSat-1 28 Jul 20:42:25 20:44:12 13° 98° (E) 20:46:06 437.345 MHz
Oscar 11 28 Jul 20:44:17 20:45:34 11° 60° (ENE) 20:46:51 145.825 FM, Beacon 2401.500 USB
STRAND 1 28 Jul 21:28:57 21:32:39 21° 298° (WNW) 21:36:20 ?
HO-68 28 Jul 21:29:55 21:37:07 83° 254° (WSW) 21:44:20 435.675 MHz FM
UKube-1 28 Jul 21:31:18 21:35:39 70° 74° (ENE) 21:40:01 145.840 MHz, 145.915 MHz
SO-50 28 Jul 22:14:18 22:19:00 61° 240° (WSW) 22:23:45 436.795 FM
MaSat-1 28 Jul 22:16:37 22:20:42 66° 299° (WNW) 22:25:28 437.345 MHz
Oscar 11 28 Jul 22:16:49 22:21:07 78° 258° (WSW) 22:25:27 145.825 FM, Beacon 2401.500 USB
UOSAT-12 28 Jul 22:36:31 22:40:27 25° 43° (NE) 22:44:21 437.025 FM, 437.400 FM
FUNcube-1 28 Jul 22:37:45 22:42:02 65° 75° (ENE) 22:46:14 145.950 - 145.970 MHz USB
RS-15 28 Jul 22:43:26 22:54:30 76° 53° (NE) 23:05:57 29.354 - 29.394 USB, Beacon 29.352 USB
UKube-1 28 Jul 23:11:03 23:12:20 11° 270° (W) 23:13:37 145.840 MHz, 145.915 MHz
HO-68 28 Jul 23:22:06 23:25:49 15° 272° (W) 23:29:33 435.675 MHz FM
MaSat-1 28 Jul 23:57:43 23:59:10 11° 322° (NW) 00:00:40 437.345 MHz
ISS 29 Jul 00:02:16 00:05:28 44° 140° (SE) 00:08:41 145.800 FM
UOSAT-12 29 Jul 00:16:17 00:20:52 50° 242° (WSW) 00:25:22 437.025 FM, 437.400 FM
FUNcube-1 29 Jul 00:17:25 00:18:50 11° 270° (W) 00:20:15 145.950 - 145.970 MHz USB
Sapphire 29 Jul 00:26:20 00:30:33 24° 107° (ESE) 00:34:47 437.095 MHz 1200 baud AX-25 AFSK
RS-15 29 Jul 00:56:43 01:05:53 32° 255° (WSW) 01:15:23 29.354 - 29.394 USB, Beacon 29.352 USB
PCSat 29 Jul 00:58:34 01:03:44 48° 114° (ESE) 01:08:56 145.825 MHz
Oscar 16 29 Jul 01:23:02 01:24:00 11° 87° (E) 01:24:59 437.025 USB, Beacon 2401.1428
ISS 29 Jul 01:39:12 01:42:16 32° 338° (NNW) 01:45:21 145.800 FM
